Погода в Ольшанце

Россия / Липецкая область     52°16′14″N   38°48′34″E
темп.,
°C
ветер,
м/с
пор.,
м/с
влажн.,
%
обл.,
%
осадки,
мм/ч
давл.,
гПа
погр.,
м
13 апреля, вт
вт1300:00+12вюв4126965 0.0 1025245
03:00+10вюв4107166 0.0 1025195
06:00+9вюв41071100 0.0 1025176
09:00+14юв5105352 0.0 1025378
12:00+20юв7113310 0.0 10241315
15:00+21юв812274 0.0 10232078
18:00+19ююв6103843 0.0 1021431
21:00+14юв485594 0.0 1022133
14 апреля, ср
ср1400:00+12юв3372100 0.0 102247
03:00+11ююв2284100 0.0 102219
06:00+10в3485100 0.0 102155
09:00+13вюв4651100 0.0 1020323
12:00+17юв463767 0.0 1019866
15:00+20юв682448 0.0 10172251
18:00+18ююв3533100 0.0 1016113
21:00+14з1140100 0.0 101710
15 апреля, чт
чт1500:00+13юв1142100 0.0 101611
03:00+12в1249100 0.0 101611
06:00+12всв4756100 0.0 1015119
09:00+11ююв3879100 0.6 1016460
12:00+17юв474632 0.1 10141686
15:00+15ююв125752 0.5 101477
18:00+15юв346098 0.3 1014250
21:00+13в226999 0.3 101445
16 апреля, пт
пт1600:00+12ю2271100 0.0 101414
03:00+10юз3573100 0.0 101498
06:00+10с1185100 0.0 101519
09:00+13ююв3570100 0.1 1016480
12:00+16юв5756100 0.6 10161475
15:00+17ююв5741100 1.3 10152378
18:00+15ю375086 0.1 1015235
21:00+12з366398 0.1 1017208
17 апреля, сб
сб1700:00+10зюз4673100 0.0 1018223
03:00+9зюз3573100 0.0 1019153
06:00+8з3575100 0.1 1020193
09:00+12св5876100 1.1 1016549
12:00+12юз227298 0.4 1020441
15:00+11зюз2176100 1.3 1021314
18:00+10зюз457696 0.1 1021332
21:00+8зсз2287100 0.6 1023119